| time (UTC) | temp C | wind direction | speed KPH | gust KPH | rain 1hr cm | rain 24hr cm | rain mn cm | humidity % | barometer mb |
| 20260902150528 | 19 | 85 | 12.9 | 19.3 | 0.00 | 0.00 | 0.00 | 73 | 1027.0 |
| 20260902150048 | 19 | 90 | 9.7 | 17.7 | 0.00 | 0.00 | 0.00 | 74 | 1026.8 |
| 20260902145529 | 19 | 69 | 9.7 | 17.7 | 0.00 | 0.00 | 0.00 | 75 | 1026.9 |
| 20260902145029 | 18 | 96 | 8.0 | 17.7 | 0.00 | 0.00 | 0.00 | 75 | 1026.9 |
| 20260902144545 | 18 | 74 | 8.0 | 16.1 | 0.00 | 0.00 | 0.00 | 76 | 1026.9 |
| 20260902144027 | 18 | 76 | 11.3 | 16.1 | 0.00 | 0.00 | 0.00 | 76 | 1026.9 |
| 20260902143527 | 18 | 78 | 11.3 | 14.5 | 0.00 | 0.00 | 0.00 | 77 | 1027.0 |
| 20260902143045 | 18 | 74 | 8.0 | 16.1 | 0.00 | 0.00 | 0.00 | 76 | 1027.0 |
| 20260902142530 | 18 | 77 | 9.7 | 16.1 | 0.00 | 0.00 | 0.00 | 77 | 1027.0 |
| 20260902142026 | 18 | 58 | 12.9 | 17.7 | 0.00 | 0.00 | 0.00 | 77 | 1027.0 |
| 20260902141549 | 18 | 69 | 11.3 | 19.3 | 0.00 | 0.00 | 0.00 | 77 | 1026.9 |
| 20260902141034 | 18 | 78 | 12.9 | 19.3 | 0.00 | 0.00 | 0.00 | 78 | 1026.9 |
| 20260902140526 | 18 | 68 | 12.9 | 19.3 | 0.00 | 0.00 | 0.00 | 78 | 1026.8 |
| 20260902140048 | 18 | 69 | 14.5 | 17.7 | 0.00 | 0.00 | 0.00 | 77 | 1026.7 |
| 20260902135527 | 18 | 70 | 11.3 | 19.3 | 0.00 | 0.00 | 0.00 | 78 | 1026.7 |
| 20260902135029 | 17 | 80 | 12.9 | 19.3 | 0.00 | 0.00 | 0.00 | 77 | 1026.7 |
| 20260902134547 | 17 | 59 | 14.5 | 19.3 | 0.00 | 0.00 | 0.00 | 78 | 1026.8 |
| 20260902134028 | 17 | 69 | 9.7 | 19.3 | 0.00 | 0.00 | 0.00 | 78 | 1026.7 |
| 20260902133528 | 17 | 69 | 11.3 | 17.7 | 0.00 | 0.00 | 0.00 | 79 | 1026.7 |
| 20260902133044 | 17 | 75 | 9.7 | 16.1 | 0.00 | 0.00 | 0.00 | 78 | 1026.6 |
| 20260902132528 | 17 | 79 | 11.3 | 16.1 | 0.00 | 0.00 | 0.00 | 78 | 1026.5 |
| 20260902132027 | 17 | 71 | 11.3 | 16.1 | 0.00 | 0.00 | 0.00 | 79 | 1026.3 |
| 20260902131553 | 17 | 72 | 12.9 | 16.1 | 0.00 | 0.00 | 0.00 | 79 | 1026.3 |
| 20260902131030 | 17 | 53 | 9.7 | 16.1 | 0.00 | 0.00 | 0.00 | 80 | 1026.2 |
| 20260902130536 | 17 | 71 | 6.4 | 9.7 | 0.00 | 0.00 | 0.00 | 81 | 1026.2 |
| 20260902130053 | 17 | 62 | 4.8 | 9.7 | 0.00 | 0.00 | 0.00 | 82 | 1026.2 |
| 20260902125529 | 16 | 31 | 4.8 | 8.0 | 0.00 | 0.00 | 0.00 | 82 | 1026.2 |
| 20260902125031 | 16 | 22 | 6.4 | 9.7 | 0.00 | 0.00 | 0.00 | 82 | 1026.1 |
| 20260902124545 | 16 | 22 | 4.8 | 11.3 | 0.00 | 0.00 | 0.00 | 83 | 1026.1 |
| 20260902124027 | 16 | 19 | 6.4 | 11.3 | 0.00 | 0.00 | 0.00 | 84 | 1026.2 |
| 20260902123527 | 16 | 19 | 6.4 | 8.0 | 0.00 | 0.00 | 0.00 | 84 | 1026.3 |
| 20260902123058 | 15 | 19 | 4.8 | 9.7 | 0.00 | 0.00 | 0.00 | 84 | 1026.2 |
| 20260902122528 | 15 | 18 | 4.8 | 11.3 | 0.00 | 0.00 | 0.00 | 84 | 1026.2 |
| 20260902122026 | 15 | 28 | 6.4 | 14.5 | 0.00 | 0.00 | 0.00 | 84 | 1026.1 |
| 20260902121556 | 15 | 16 | 6.4 | 14.5 | 0.00 | 0.00 | 0.00 | 85 | 1026.0 |
| 20260902121028 | 15 | 30 | 6.4 | 12.9 | 0.00 | 0.00 | 0.00 | 85 | 1025.9 |
| 20260902120528 | 15 | 37 | 8.0 | 12.9 | 0.00 | 0.00 | 0.00 | 85 | 1025.8 |
| 20260902120046 | 14 | 40 | 8.0 | 12.9 | 0.00 | 0.00 | 0.00 | 85 | 1025.7 |
| 20260902115526 | 14 | 30 | 6.4 | 12.9 | 0.00 | 0.00 | 0.00 | 85 | 1025.9 |
| 20260902115028 | 14 | 34 | 8.0 | 12.9 | 0.00 | 0.00 | 0.00 | 85 | 1025.8 |
| 20260902114545 | 14 | 44 | 8.0 | 12.9 | 0.00 | 0.00 | 0.00 | 85 | 1025.6 |
| 20260902114028 | 14 | 40 | 8.0 | 11.3 | 0.00 | 0.00 | 0.00 | 85 | 1025.5 |
| 20260902113527 | 14 | 43 | 6.4 | 11.3 | 0.00 | 0.00 | 0.00 | 85 | 1025.6 |
| 20260902113047 | 14 | 43 | 6.4 | 11.3 | 0.00 | 0.00 | 0.00 | 85 | 1025.5 |
| 20260902112530 | 14 | 30 | 6.4 | 14.5 | 0.00 | 0.00 | 0.00 | 85 | 1025.7 |
| 20260902112028 | 14 | 41 | 8.0 | 14.5 | 0.00 | 0.00 | 0.00 | 85 | 1025.6 |
| 20260902111553 | 14 | 37 | 8.0 | 14.5 | 0.00 | 0.00 | 0.00 | 85 | 1025.6 |
| 20260902111026 | 14 | 50 | 8.0 | 14.5 | 0.00 | 0.00 | 0.00 | 85 | 1025.5 |
| 20260902110530 | 14 | 50 | 8.0 | 14.5 | 0.00 | 0.00 | 0.00 | 85 | 1025.7 |
| 20260902110048 | 14 | 26 | 6.4 | 14.5 | 0.00 | 0.00 | 0.00 | 85 | 1025.7 |
| 20260902105527 | 14 | 42 | 8.0 | 14.5 | 0.00 | 0.00 | 0.00 | 86 | 1025.6 |
| 20260902105027 | 14 | 37 | 9.7 | 16.1 | 0.00 | 0.00 | 0.00 | 86 | 1025.6 |
| 20260902104552 | 14 | 53 | 9.7 | 16.1 | 0.00 | 0.00 | 0.00 | 86 | 1025.4 |
| 20260902104027 | 13 | 36 | 8.0 | 12.9 | 0.00 | 0.00 | 0.00 | 86 | 1025.4 |
| 20260902103530 | 13 | 42 | 1.6 | 4.8 | 0.00 | 0.00 | 0.00 | 86 | 1025.4 |
| 20260902103045 | 13 | 44 | 1.6 | 4.8 | 0.00 | 0.00 | 0.00 | 86 | 1025.4 |
| 20260902102528 | 13 | 0 | 0.0 | 12.9 | 0.00 | 0.00 | 0.00 | 86 | 1025.5 |
| 20260902102028 | 13 | 43 | 4.8 | 17.7 | 0.00 | 0.00 | 0.00 | 87 | 1025.5 |
| 20260902101540 | 13 | 30 | 8.0 | 17.7 | 0.00 | 0.00 | 0.00 | 87 | 1025.4 |
| 20260902101026 | 13 | 24 | 8.0 | 16.1 | 0.00 | 0.00 | 0.00 | 87 | 1025.2 |
| 20260902100528 | 13 | 36 | 8.0 | 16.1 | 0.00 | 0.00 | 0.00 | 87 | 1025.3 |
| 20260902100103 | 13 | 38 | 9.7 | 14.5 | 0.00 | 0.00 | 0.00 | 88 | 1025.2 |
| 20260902095528 | 13 | 38 | 6.4 | 12.9 | 0.00 | 0.00 | 0.00 | 88 | 1025.2 |
| 20260902095026 | 13 | 26 | 3.2 | 12.9 | 0.00 | 0.00 | 0.00 | 87 | 1025.0 |
| 20260902094547 | 13 | 26 | 1.6 | 12.9 | 0.00 | 0.00 | 0.00 | 87 | 1025.1 |
| 20260902094028 | 13 | 26 | 8.0 | 14.5 | 0.00 | 0.00 | 0.00 | 88 | 1025.0 |
| 20260902093529 | 13 | 15 | 9.7 | 14.5 | 0.00 | 0.00 | 0.00 | 88 | 1024.9 |
| 20260902093047 | 14 | 17 | 9.7 | 16.1 | 0.00 | 0.00 | 0.00 | 87 | 1024.8 |
| 20260902092527 | 14 | 38 | 9.7 | 16.1 | 0.00 | 0.00 | 0.00 | 88 | 1024.7 |
| 20260902092030 | 13 | 26 | 11.3 | 16.1 | 0.00 | 0.00 | 0.00 | 88 | 1024.8 |
| 20260902091552 | 14 | 22 | 11.3 | 16.1 | 0.00 | 0.00 | 0.00 | 87 | 1024.8 |
| 20260902091026 | 14 | 13 | 11.3 | 16.1 | 0.00 | 0.00 | 0.00 | 87 | 1024.9 |
| 20260902090527 | 13 | 18 | 8.0 | 16.1 | 0.00 | 0.00 | 0.00 | 87 | 1025.0 |
| 20260902090047 | 13 | 37 | 9.7 | 16.1 | 0.00 | 0.00 | 0.00 | 87 | 1024.9 |
| 20260902085526 | 14 | 37 | 12.9 | 17.7 | 0.00 | 0.00 | 0.00 | 87 | 1024.8 |
| 20260902085027 | 14 | 37 | 11.3 | 17.7 | 0.00 | 0.00 | 0.00 | 87 | 1024.9 |
| 20260902084557 | 13 | 21 | 11.3 | 17.7 | 0.00 | 0.00 | 0.00 | 87 | 1024.8 |
| 20260902084027 | 14 | 24 | 12.9 | 17.7 | 0.00 | 0.00 | 0.00 | 87 | 1024.8 |
| 20260902083529 | 13 | 17 | 12.9 | 16.1 | 0.00 | 0.00 | 0.00 | 87 | 1024.9 |
| 20260902083047 | 13 | 17 | 9.7 | 16.1 | 0.00 | 0.00 | 0.00 | 87 | 1024.8 |
| 20260902082527 | 13 | 5 | 9.7 | 16.1 | 0.00 | 0.00 | 0.00 | 87 | 1024.7 |
| 20260902082028 | 13 | 17 | 11.3 | 16.1 | 0.00 | 0.00 | 0.00 | 87 | 1024.7 |
| 20260902081548 | 13 | 26 | 11.3 | 16.1 | 0.00 | 0.00 | 0.00 | 87 | 1024.6 |
| 20260902081029 | 13 | 22 | 3.2 | 9.7 | 0.00 | 0.00 | 0.00 | 86 | 1024.5 |
| 20260902080527 | 12 | 0 | 0.0 | 9.7 | 0.00 | 0.00 | 0.00 | 85 | 1024.7 |
| 20260902080049 | 13 | 0 | 0.0 | 14.5 | 0.00 | 0.00 | 0.00 | 85 | 1024.6 |
| 20260902075526 | 13 | 0 | 4.8 | 14.5 | 0.00 | 0.00 | 0.00 | 86 | 1024.7 |
| 20260902075028 | 13 | 18 | 9.7 | 14.5 | 0.00 | 0.00 | 0.00 | 88 | 1024.6 |
| 20260902074545 | 13 | 27 | 8.0 | 14.5 | 0.00 | 0.00 | 0.00 | 88 | 1024.5 |
| 20260902074029 | 12 | 0 | 0.0 | 3.2 | 0.00 | 0.00 | 0.00 | 87 | 1024.4 |
| 20260902073527 | 12 | 0 | 0.0 | 12.9 | 0.00 | 0.00 | 0.00 | 87 | 1024.3 |
| 20260902073051 | 13 | 0 | 3.2 | 12.9 | 0.00 | 0.00 | 0.00 | 88 | 1024.4 |
| 20260902072527 | 12 | 0 | 0.0 | 12.9 | 0.00 | 0.00 | 0.00 | 87 | 1024.5 |
| 20260902072027 | 13 | 0 | 4.8 | 12.9 | 0.00 | 0.00 | 0.00 | 89 | 1024.4 |
| 20260902071550 | 13 | 16 | 4.8 | 12.9 | 0.00 | 0.00 | 0.00 | 89 | 1024.3 |
| 20260902071027 | 12 | 18 | 0.0 | 4.8 | 0.00 | 0.00 | 0.00 | 88 | 1024.3 |
| 20260902070527 | 12 | 18 | 0.0 | 4.8 | 0.00 | 0.00 | 0.00 | 88 | 1024.3 |
| 20260902070050 | 12 | 0 | 0.0 | 4.8 | 0.00 | 0.00 | 0.00 | 88 | 1024.3 |
| 20260902065529 | 12 | 0 | 0.0 | 0.0 | 0.00 | 0.00 | 0.00 | 87 | 1024.2 |
| 20260902065027 | 12 | 0 | 0.0 | 0.0 | 0.00 | 0.00 | 0.00 | 87 | 1024.2 |
| 20260902064552 | 12 | 0 | 0.0 | 0.0 | 0.00 | 0.00 | 0.00 | 87 | 1024.1 |
| 20260902064028 | 12 | 0 | 0.0 | 0.0 | 0.00 | 0.00 | 0.00 | 87 | 1024.1 |
| 20260902063530 | 12 | 0 | 0.0 | 0.0 | 0.00 | 0.00 | 0.00 | 87 | 1024.1 |
| 20260902063050 | 12 | 0 | 0.0 | 1.6 | 0.00 | 0.00 | 0.00 | 87 | 1024.2 |
| 20260902062527 | 12 | 0 | 0.0 | 3.2 | 0.00 | 0.00 | 0.00 | 87 | 1024.1 |
| 20260902062027 | 12 | 0 | 0.0 | 3.2 | 0.00 | 0.00 | 0.00 | 86 | 1024.1 |
| 20260902061556 | 12 | 0 | 0.0 | 3.2 | 0.00 | 0.00 | 0.00 | 86 | 1024.1 |
| 20260902061026 | 12 | 0 | 0.0 | 3.2 | 0.00 | 0.00 | 0.00 | 85 | 1024.2 |
| 20260902060526 | 12 | 0 | 0.0 | 3.2 | 0.00 | 0.00 | 0.00 | 85 | 1024.0 |
| 20260902060048 | 12 | 0 | 0.0 | 1.6 | 0.00 | 0.00 | 0.00 | 84 | 1024.1 |
| 20260902055530 | 13 | 0 | 0.0 | 0.0 | 0.00 | 0.00 | 0.00 | 83 | 1024.1 |
| 20260902055026 | 13 | 0 | 0.0 | 1.6 | 0.00 | 0.00 | 0.00 | 81 | 1024.1 |
| 20260902054550 | 14 | 0 | 0.0 | 6.4 | 0.00 | 0.00 | 0.00 | 80 | 1024.2 |
| 20260902054028 | 15 | 18 | 0.0 | 8.0 | 0.00 | 0.00 | 0.00 | 80 | 1024.1 |
| 20260902053525 | 15 | 18 | 4.8 | 8.0 | 0.00 | 0.00 | 0.00 | 81 | 1024.0 |
| 20260902053048 | 15 | 18 | 3.2 | 8.0 | 0.00 | 0.00 | 0.00 | 82 | 1023.9 |
| 20260902052531 | 15 | 18 | 4.8 | 8.0 | 0.00 | 0.00 | 0.00 | 82 | 1024.1 |
| 20260902052028 | 15 | 18 | 4.8 | 6.4 | 0.00 | 0.00 | 0.00 | 83 | 1023.9 |
| 20260902051543 | 15 | 18 | 3.2 | 8.0 | 0.00 | 0.00 | 0.00 | 84 | 1023.9 |
| 20260902051028 | 14 | 18 | 1.6 | 8.0 | 0.00 | 0.00 | 0.00 | 85 | 1023.9 |
| 20260902050528 | 14 | 0 | 0.0 | 4.8 | 0.00 | 0.00 | 0.00 | 85 | 1023.9 |
| 20260902045526 | 14 | 18 | 3.2 | 6.4 | 0.00 | 0.00 | 0.00 | 88 | 1023.7 |
| 20260902045027 | 13 | 18 | 4.8 | 6.4 | 0.00 | 0.00 | 0.00 | 89 | 1023.7 |
| 20260902044546 | 13 | 18 | 1.6 | 8.0 | 0.00 | 0.00 | 0.00 | 89 | 1023.7 |
| 20260902044028 | 13 | 15 | 0.0 | 12.9 | 0.00 | 0.00 | 0.00 | 89 | 1023.6 |
| 20260902043531 | 14 | 24 | 4.8 | 12.9 | 0.00 | 0.00 | 0.00 | 90 | 1023.7 |
| 20260902043044 | 13 | 30 | 8.0 | 11.3 | 0.00 | 0.00 | 0.00 | 90 | 1023.6 |
| 20260902042528 | 12 | 0 | 0.0 | 0.0 | 0.00 | 0.00 | 0.00 | 90 | 1023.5 |
| 20260902042027 | 12 | 0 | 0.0 | 0.0 | 0.00 | 0.00 | 0.00 | 89 | 1023.2 |
| 20260902041543 | 12 | 0 | 0.0 | 0.0 | 0.00 | 0.00 | 0.00 | 89 | 1023.1 |
| 20260902041031 | 12 | 0 | 0.0 | 0.0 | 0.00 | 0.00 | 0.00 | 89 | 1023.1 |
| 20260902040531 | 12 | 0 | 0.0 | 0.0 | 0.00 | 0.00 | 0.00 | 89 | 1023.0 |
| 20260902040050 | 12 | 0 | 0.0 | 0.0 | 0.00 | 0.00 | 0.00 | 89 | 1022.9 |
| 20260902035526 | 12 | 0 | 0.0 | 0.0 | 0.00 | 0.00 | 0.00 | 89 | 1023.0 |
| 20260902035027 | 12 | 0 | 0.0 | 0.0 | 0.00 | 0.00 | 0.00 | 89 | 1023.0 |
| 20260902034546 | 12 | 0 | 0.0 | 0.0 | 0.00 | 0.00 | 0.00 | 88 | 1022.9 |
| 20260902034032 | 12 | 0 | 0.0 | 0.0 | 0.00 | 0.00 | 0.00 | 88 | 1022.9 |
| 20260902033527 | 12 | 0 | 0.0 | 0.0 | 0.00 | 0.00 | 0.00 | 88 | 1023.0 |
| 20260902033046 | 12 | 0 | 0.0 | 0.0 | 0.00 | 0.00 | 0.00 | 88 | 1022.8 |
| 20260902032527 | 13 | 0 | 0.0 | 0.0 | 0.00 | 0.00 | 0.00 | 88 | 1022.7 |
| 20260902032026 | 13 | 0 | 0.0 | 0.0 | 0.00 | 0.00 | 0.00 | 88 | 1022.9 |
| 20260902031547 | 13 | 0 | 0.0 | 0.0 | 0.00 | 0.00 | 0.00 | 88 | 1022.8 |
| 20260902031027 | 13 | 0 | 0.0 | 0.0 | 0.00 | 0.00 | 0.00 | 88 | 1022.7 |
| 20260902030526 | 13 | 0 | 0.0 | 0.0 | 0.00 | 0.00 | 0.00 | 88 | 1022.7 |
| 20260902030048 | 13 | 0 | 0.0 | 0.0 | 0.00 | 0.00 | 0.00 | 87 | 1022.7 |
| 20260902025530 | 13 | 0 | 0.0 | 0.0 | 0.00 | 0.00 | 0.00 | 88 | 1022.6 |
| 20260902025029 | 13 | 0 | 0.0 | 0.0 | 0.00 | 0.00 | 0.00 | 87 | 1022.7 |
| 20260902024545 | 13 | 0 | 0.0 | 0.0 | 0.00 | 0.00 | 0.00 | 87 | 1022.7 |
| 20260902024027 | 13 | 0 | 0.0 | 0.0 | 0.00 | 0.00 | 0.00 | 87 | 1022.8 |
| 20260902023528 | 13 | 0 | 0.0 | 0.0 | 0.00 | 0.00 | 0.00 | 87 | 1022.8 |
| 20260902023048 | 13 | 0 | 0.0 | 0.0 | 0.00 | 0.00 | 0.00 | 86 | 1022.6 |
| 20260902022528 | 13 | 0 | 0.0 | 0.0 | 0.00 | 0.00 | 0.00 | 86 | 1022.6 |
| 20260902022027 | 13 | 0 | 0.0 | 0.0 | 0.00 | 0.00 | 0.00 | 86 | 1022.7 |
| 20260902021543 | 13 | 0 | 0.0 | 0.0 | 0.00 | 0.00 | 0.00 | 86 | 1022.6 |
| 20260902021027 | 13 | 0 | 0.0 | 0.0 | 0.00 | 0.00 | 0.00 | 86 | 1022.5 |
| 20260902020527 | 13 | 0 | 0.0 | 0.0 | 0.00 | 0.00 | 0.00 | 85 | 1022.6 |
| 20260902020047 | 13 | 0 | 0.0 | 0.0 | 0.00 | 0.00 | 0.00 | 85 | 1022.6 |
| 20260902015527 | 13 | 0 | 0.0 | 0.0 | 0.00 | 0.00 | 0.00 | 85 | 1022.6 |
| 20260902015028 | 13 | 0 | 0.0 | 0.0 | 0.00 | 0.00 | 0.00 | 85 | 1022.7 |
| 20260902014547 | 13 | 0 | 0.0 | 4.8 | 0.00 | 0.00 | 0.00 | 85 | 1022.7 |
| 20260902014028 | 13 | 0 | 0.0 | 4.8 | 0.00 | 0.00 | 0.00 | 84 | 1022.7 |
| 20260902013529 | 13 | 0 | 1.6 | 4.8 | 0.00 | 0.00 | 0.00 | 84 | 1022.5 |
| 20260902013049 | 13 | 312 | 1.6 | 4.8 | 0.00 | 0.00 | 0.00 | 84 | 1022.5 |
| 20260902012527 | 13 | 312 | 1.6 | 4.8 | 0.00 | 0.00 | 0.00 | 84 | 1022.4 |
| 20260902012031 | 13 | 312 | 1.6 | 4.8 | 0.00 | 0.00 | 0.00 | 83 | 1022.4 |
| 20260902011550 | 13 | 312 | 1.6 | 4.8 | 0.00 | 0.00 | 0.00 | 83 | 1022.4 |
| 20260902011028 | 13 | 312 | 1.6 | 4.8 | 0.00 | 0.00 | 0.00 | 83 | 1022.4 |
| 20260902010528 | 13 | 312 | 3.2 | 4.8 | 0.00 | 0.00 | 0.00 | 83 | 1022.5 |
| 20260902010050 | 13 | 312 | 0.0 | 3.2 | 0.00 | 0.00 | 0.00 | 82 | 1022.4 |
| 20260902005530 | 14 | 312 | 0.0 | 3.2 | 0.00 | 0.00 | 0.00 | 82 | 1022.4 |
| 20260902005028 | 14 | 312 | 0.0 | 3.2 | 0.00 | 0.00 | 0.00 | 82 | 1022.4 |
| 20260902004545 | 14 | 0 | 0.0 | 0.0 | 0.00 | 0.00 | 0.00 | 82 | 1022.4 |
| 20260902004031 | 14 | 0 | 0.0 | 3.2 | 0.00 | 0.00 | 0.00 | 82 | 1022.6 |
| 20260902003528 | 14 | 0 | 0.0 | 3.2 | 0.00 | 0.00 | 0.00 | 82 | 1022.5 |
| 20260902003045 | 15 | 312 | 0.0 | 0.0 | 0.00 | 0.00 | 0.00 | 81 | 1022.5 |
| 20260902002527 | 15 | 0 | 0.0 | 0.0 | 0.00 | 0.00 | 0.00 | 81 | 1022.5 |
| 20260902002034 | 15 | 0 | 0.0 | 0.0 | 0.00 | 0.00 | 0.00 | 81 | 1022.5 |
| 20260902001547 | 15 | 0 | 0.0 | 0.0 | 0.00 | 0.00 | 0.00 | 81 | 1022.3 |
| 20260902001027 | 15 | 0 | 0.0 | 3.2 | 0.00 | 0.00 | 0.00 | 81 | 1022.3 |
| 20260902000528 | 15 | 0 | 0.0 | 4.8 | 0.00 | 0.00 | 0.00 | 80 | 1022.4 |
| 20260902000050 | 15 | 0 | 0.0 | 4.8 | 0.00 | 0.00 | 0.00 | 80 | 1022.3 |
| 20260901235527 | 15 | 312 | 1.6 | 4.8 | 0.00 | 0.00 | 0.00 | 80 | 1022.3 |
| 20260901235028 | 15 | 313 | 1.6 | 4.8 | 0.00 | 0.00 | 0.00 | 79 | 1022.3 |
| 20260901234543 | 16 | 314 | 1.6 | 4.8 | 0.00 | 0.00 | 0.00 | 79 | 1022.3 |
| 20260901234028 | 16 | 0 | 0.0 | 4.8 | 0.00 | 0.00 | 0.00 | 79 | 1022.2 |
| 20260901233527 | 16 | 0 | 1.6 | 4.8 | 0.00 | 0.00 | 0.00 | 78 | 1022.1 |
| 20260901233042 | 16 | 315 | 0.0 | 4.8 | 0.00 | 0.00 | 0.00 | 77 | 1022.0 |
| 20260901232531 | 16 | 0 | 0.0 | 0.0 | 0.00 | 0.00 | 0.00 | 77 | 1022.0 |
| 20260901232027 | 16 | 0 | 0.0 | 3.2 | 0.00 | 0.00 | 0.00 | 76 | 1022.0 |
| 20260901231548 | 16 | 0 | 0.0 | 3.2 | 0.00 | 0.00 | 0.00 | 76 | 1021.9 |
| 20260901231029 | 17 | 0 | 0.0 | 3.2 | 0.00 | 0.00 | 0.00 | 75 | 1021.9 |
| 20260901230529 | 17 | 0 | 0.0 | 0.0 | 0.00 | 0.00 | 0.00 | 74 | 1021.9 |
| 20260901230045 | 17 | 0 | 0.0 | 0.0 | 0.00 | 0.00 | 0.00 | 74 | 1021.8 |
| 20260901225526 | 17 | 0 | 0.0 | 0.0 | 0.00 | 0.00 | 0.00 | 73 | 1021.7 |
| 20260901225027 | 18 | 0 | 0.0 | 0.0 | 0.00 | 0.00 | 0.00 | 72 | 1021.7 |
| 20260901224552 | 18 | 0 | 0.0 | 0.0 | 0.00 | 0.00 | 0.00 | 72 | 1021.8 |
| 20260901224027 | 18 | 0 | 0.0 | 0.0 | 0.00 | 0.00 | 0.00 | 71 | 1021.8 |
| 20260901223527 | 18 | 0 | 0.0 | 0.0 | 0.00 | 0.00 | 0.00 | 71 | 1021.7 |
| 20260901223042 | 19 | 0 | 0.0 | 0.0 | 0.00 | 0.00 | 0.00 | 71 | 1021.8 |
| 20260901222527 | 19 | 0 | 0.0 | 0.0 | 0.00 | 0.00 | 0.00 | 70 | 1021.7 |
| 20260901222026 | 20 | 0 | 0.0 | 1.6 | 0.00 | 0.00 | 0.00 | 69 | 1021.9 |
| 20260901221557 | 20 | 0 | 0.0 | 1.6 | 0.00 | 0.00 | 0.00 | 68 | 1021.8 |
| 20260901221029 | 20 | 316 | 0.0 | 3.2 | 0.00 | 0.00 | 0.00 | 67 | 1021.7 |
| 20260901220528 | 20 | 0 | 0.0 | 4.8 | 0.00 | 0.00 | 0.00 | 67 | 1021.6 |
| 20260901220047 | 20 | 316 | 0.0 | 4.8 | 0.00 | 0.00 | 0.00 | 67 | 1021.5 |
| 20260901215527 | 20 | 0 | 0.0 | 4.8 | 0.00 | 0.00 | 0.00 | 67 | 1021.6 |
| 20260901215028 | 20 | 0 | 0.0 | 4.8 | 0.00 | 0.00 | 0.00 | 67 | 1021.6 |
| 20260901214557 | 20 | 345 | 0.0 | 3.2 | 0.00 | 0.00 | 0.00 | 67 | 1021.5 |
| 20260901214028 | 20 | 0 | 0.0 | 3.2 | 0.00 | 0.00 | 0.00 | 67 | 1021.4 |
| 20260901213530 | 20 | 0 | 0.0 | 3.2 | 0.00 | 0.00 | 0.00 | 66 | 1021.4 |
| 20260901213042 | 20 | 0 | 0.0 | 4.8 | 0.00 | 0.00 | 0.00 | 66 | 1021.3 |
| 20260901212527 | 20 | 0 | 0.0 | 6.4 | 0.00 | 0.00 | 0.00 | 66 | 1021.3 |
| 20260901212028 | 20 | 43 | 0.0 | 12.9 | 0.00 | 0.00 | 0.00 | 66 | 1021.4 |
| 20260901211547 | 20 | 0 | 1.6 | 12.9 | 0.00 | 0.00 | 0.00 | 64 | 1021.4 |
| 20260901211031 | 21 | 0 | 1.6 | 6.4 | 0.00 | 0.00 | 0.00 | 65 | 1021.3 |
| 20260901210528 | 21 | 0 | 1.6 | 6.4 | 0.00 | 0.00 | 0.00 | 66 | 1021.3 |
| 20260901210113 | 21 | 32 | 1.6 | 6.4 | 0.00 | 0.00 | 0.00 | 65 | 1021.2 |
| 20260901205528 | 21 | 0 | 0.0 | 6.4 | 0.00 | 0.00 | 0.00 | 65 | 1021.3 |
| 20260901205028 | 21 | 57 | 1.6 | 6.4 | 0.00 | 0.00 | 0.00 | 63 | 1021.1 |
| 20260901204544 | 21 | 0 | 1.6 | 6.4 | 0.00 | 0.00 | 0.00 | 63 | 1021.0 |
| 20260901204034 | 21 | 47 | 1.6 | 6.4 | 0.00 | 0.00 | 0.00 | 63 | 1021.1 |
| 20260901203530 | 21 | 90 | 1.6 | 6.4 | 0.00 | 0.00 | 0.00 | 65 | 1021.1 |
| 20260901203052 | 21 | 0 | 1.6 | 6.4 | 0.00 | 0.00 | 0.00 | 64 | 1021.1 |
| 20260901202529 | 21 | 0 | 1.6 | 6.4 | 0.00 | 0.00 | 0.00 | 64 | 1021.0 |
| 20260901202027 | 22 | 37 | 0.0 | 6.4 | 0.00 | 0.00 | 0.00 | 64 | 1020.9 |
| 20260901201548 | 22 | 78 | 1.6 | 6.4 | 0.00 | 0.00 | 0.00 | 63 | 1020.9 |
| 20260901201026 | 22 | 93 | 0.0 | 6.4 | 0.00 | 0.00 | 0.00 | 63 | 1020.8 |
| 20260901200527 | 22 | 63 | 1.6 | 8.0 | 0.00 | 0.00 | 0.00 | 62 | 1020.9 |
| 20260901200045 | 22 | 0 | 1.6 | 9.7 | 0.00 | 0.00 | 0.00 | 61 | 1021.0 |
| 20260901195532 | 22 | 0 | 1.6 | 9.7 | 0.00 | 0.00 | 0.00 | 62 | 1021.0 |
| 20260901195027 | 22 | 93 | 0.0 | 6.4 | 0.00 | 0.00 | 0.00 | 60 | 1021.0 |
| 20260901194557 | 22 | 81 | 1.6 | 6.4 | 0.00 | 0.00 | 0.00 | 60 | 1021.1 |
| 20260901194029 | 22 | 99 | 1.6 | 6.4 | 0.00 | 0.00 | 0.00 | 60 | 1021.1 |
| 20260901193527 | 22 | 0 | 0.0 | 11.3 | 0.00 | 0.00 | 0.00 | 63 | 1020.9 |
| 20260901193050 | 22 | 86 | 1.6 | 12.9 | 0.00 | 0.00 | 0.00 | 63 | 1021.0 |
| 20260901192529 | 22 | 348 | 1.6 | 12.9 | 0.00 | 0.00 | 0.00 | 62 | 1020.9 |
| 20260901192030 | 22 | 79 | 1.6 | 11.3 | 0.00 | 0.00 | 0.00 | 63 | 1020.9 |
| 20260901191553 | 22 | 88 | 3.2 | 11.3 | 0.00 | 0.00 | 0.00 | 64 | 1021.0 |
| 20260901191029 | 22 | 0 | 3.2 | 14.5 | 0.00 | 0.00 | 0.00 | 62 | 1020.9 |
| 20260901190531 | 22 | 79 | 4.8 | 14.5 | 0.00 | 0.00 | 0.00 | 62 | 1021.0 |
| 20260901190052 | 22 | 0 | 3.2 | 12.9 | 0.00 | 0.00 | 0.00 | 62 | 1021.0 |
| 20260901185531 | 22 | 78 | 4.8 | 12.9 | 0.00 | 0.00 | 0.00 | 60 | 1020.9 |
| 20260901185027 | 22 | 304 | 1.6 | 9.7 | 0.00 | 0.00 | 0.00 | 61 | 1020.9 |
| 20260901184545 | 22 | 69 | 3.2 | 11.3 | 0.00 | 0.00 | 0.00 | 61 | 1021.0 |
| 20260901184028 | 22 | 101 | 1.6 | 11.3 | 0.00 | 0.00 | 0.00 | 60 | 1021.0 |
| 20260901183531 | 22 | 75 | 3.2 | 11.3 | 0.00 | 0.00 | 0.00 | 59 | 1021.0 |
| 20260901183103 | 22 | 78 | 1.6 | 9.7 | 0.00 | 0.00 | 0.00 | 58 | 1021.0 |
| 20260901182528 | 22 | 111 | 1.6 | 9.7 | 0.00 | 0.00 | 0.00 | 60 | 1021.0 |
| 20260901182028 | 22 | 89 | 1.6 | 9.7 | 0.00 | 0.00 | 0.00 | 61 | 1021.1 |
| 20260901181547 | 22 | 94 | 3.2 | 9.7 | 0.00 | 0.00 | 0.00 | 61 | 1021.3 |
| 20260901181029 | 22 | 92 | 4.8 | 9.7 | 0.00 | 0.00 | 0.00 | 60 | 1021.2 |
| 20260901180531 | 22 | 101 | 1.6 | 9.7 | 0.00 | 0.00 | 0.00 | 60 | 1021.0 |
| 20260901180043 | 22 | 105 | 1.6 | 9.7 | 0.00 | 0.00 | 0.00 | 60 | 1021.3 |
| 20260901175531 | 22 | 0 | 0.0 | 11.3 | 0.00 | 0.00 | 0.00 | 63 | 1021.4 |
| 20260901175028 | 22 | 84 | 1.6 | 11.3 | 0.00 | 0.00 | 0.00 | 63 | 1021.5 |
| 20260901174542 | 22 | 84 | 1.6 | 19.3 | 0.00 | 0.00 | 0.00 | 63 | 1021.4 |
| 20260901174030 | 22 | 53 | 1.6 | 19.3 | 0.00 | 0.00 | 0.00 | 63 | 1021.6 |
| 20260901173529 | 22 | 0 | 3.2 | 9.7 | 0.00 | 0.00 | 0.00 | 63 | 1021.7 |
| 20260901173049 | 22 | 0 | 1.6 | 9.7 | 0.00 | 0.00 | 0.00 | 65 | 1021.8 |
| 20260901172528 | 22 | 94 | 3.2 | 9.7 | 0.00 | 0.00 | 0.00 | 63 | 1021.7 |
| 20260901172027 | 22 | 94 | 0.0 | 9.7 | 0.00 | 0.00 | 0.00 | 64 | 1021.6 |
| 20260901171558 | 22 | 0 | 1.6 | 9.7 | 0.00 | 0.00 | 0.00 | 63 | 1021.6 |
| 20260901171029 | 22 | 0 | 1.6 | 9.7 | 0.00 | 0.00 | 0.00 | 64 | 1021.6 |
| 20260901170528 | 22 | 101 | 1.6 | 9.7 | 0.00 | 0.00 | 0.00 | 65 | 1021.4 |
| 20260901170050 | 22 | 94 | 1.6 | 9.7 | 0.00 | 0.00 | 0.00 | 65 | 1021.4 |
| 20260901165527 | 21 | 74 | 1.6 | 9.7 | 0.00 | 0.00 | 0.00 | 65 | 1021.4 |
| 20260901165031 | 21 | 0 | 3.2 | 9.7 | 0.00 | 0.00 | 0.00 | 66 | 1021.3 |
| 20260901164546 | 21 | 84 | 0.0 | 9.7 | 0.00 | 0.00 | 0.00 | 67 | 1021.3 |
| 20260901164031 | 21 | 79 | 1.6 | 9.7 | 0.00 | 0.00 | 0.00 | 67 | 1021.5 |
| 20260901163530 | 21 | 0 | 1.6 | 14.5 | 0.00 | 0.00 | 0.00 | 68 | 1021.5 |
| 20260901163054 | 21 | 99 | 1.6 | 14.5 | 0.00 | 0.00 | 0.00 | 68 | 1021.5 |
| 20260901162527 | 21 | 107 | 6.4 | 12.9 | 0.00 | 0.00 | 0.00 | 67 | 1021.6 |
| 20260901162028 | 21 | 85 | 4.8 | 12.9 | 0.00 | 0.00 | 0.00 | 69 | 1021.7 |
| 20260901161559 | 21 | 65 | 4.8 | 9.7 | 0.00 | 0.00 | 0.00 | 65 | 1021.5 |
| 20260901161030 | 21 | 95 | 1.6 | 9.7 | 0.00 | 0.00 | 0.00 | 66 | 1021.6 |
| 20260901160530 | 21 | 96 | 1.6 | 4.8 | 0.00 | 0.00 | 0.00 | 67 | 1021.8 |
| 20260901160048 | 21 | 0 | 1.6 | 6.4 | 0.00 | 0.00 | 0.00 | 66 | 1021.8 |
| 20260901155527 | 21 | 102 | 1.6 | 6.4 | 0.00 | 0.00 | 0.00 | 67 | 1021.7 |
| 20260901155030 | 21 | 102 | 1.6 | 6.4 | 0.00 | 0.00 | 0.00 | 67 | 1022.0 |
| 20260901154610 | 21 | 107 | 0.0 | 9.7 | 0.00 | 0.00 | 0.00 | 69 | 1022.0 |
| 20260901154028 | 21 | 103 | 3.2 | 9.7 | 0.00 | 0.00 | 0.00 | 69 | 1022.1 |
| 20260901153528 | 20 | 98 | 1.6 | 9.7 | 0.00 | 0.00 | 0.00 | 71 | 1022.0 |
| 20260901153048 | 20 | 0 | 1.6 | 6.4 | 0.00 | 0.00 | 0.00 | 73 | 1021.9 |
| 20260901152526 | 20 | 85 | 3.2 | 6.4 | 0.00 | 0.00 | 0.00 | 73 | 1021.8 |
| 20260901152028 | 20 | 0 | 0.0 | 6.4 | 0.00 | 0.00 | 0.00 | 73 | 1021.9 |
| 20260901151553 | 20 | 85 | 1.6 | 6.4 | 0.00 | 0.00 | 0.00 | 72 | 1021.8 |
| 20260901151028 | 20 | 0 | 0.0 | 0.0 | 0.00 | 0.00 | 0.00 | 73 | 1021.9 |